星链-3258 (STARLINK-3258 )

导读 | 星芒AI

STARLINK-3258 是 SpaceX Starlink 卫星互联网项目中的一颗低轨道卫星,属于第 13 批组网发射的星群。该卫星由 SpaceX 设计制造,旨在为全球用户提供高速、低延迟的宽带互联网服务。它运行在约 550 公里的轨道高度,与其他 Starlink 卫星协同工作,构建全球覆盖的通信网络。STARLINK-3258 采用先进推进系统和激光通信技术,提高网络效率并减少空间碎片风险,助力实现 SpaceX 的全球互联网接入愿景。

基本信息
目录编号:
50206
目录名称:
STARLINK-3258
国际标识:
2021-125BC
轨道中心:
EARTH
卫星名称:
星链-3258
卫星全名:
星链-3258 (STARLINK-3258 )
卫星状态:
在轨 (已飞行1417 天)
发射日期:
2021-12-18 UTC
国别 :
美国 (US)
星等 :
--
轨道信息
数据来源 国际轨道数据
星历时间: 2025-11-04T04:48:16+0800
11小时前
查看轨道信息
半长轴: 6917.89km
偏心率: 0.0001201
轨道倾角: 53.217°
近地点辐角 91.180°
升交点赤经 83.856°
平近点角 268.933°
近地点: 538.924km
远地点: 540.586km
周期: 95.438分钟
每日圈数: 15.08837
详细信息
固有亮度:
5
最大亮度:
2.5
卫星平台:
Starlink v1.5
覆盖范围:
全球
运营商:
太空探索技术公司
运营商所在国:
美国
制造商(研发单位):
太空探索技术公司
制造商所在国:
美国
使用方式:
暂无
卫星简介
星链(Starlink)计划是由太空探索技术公司(SpaceX)提出的一个巨型低轨卫星互联网星座项目,计划在2019年至2024年间在太空搭建由约1.2万颗卫星组成的“星链”网络,其中1584颗将部署在地球上空550千米处的近地轨道,并从2020年开始工作。该卫星仍在工作。
2D轨道图
3D轨道图
轨道高度分析图
轨道倾角分析图
轨道综合分析图
查看轨道综合分析图